TimeEDT,TemperatureF,Dew PointF,Humidity,Sea Level PressureIn,VisibilityMPH,Wind Direction,Wind SpeedMPH,Gust SpeedMPH,PrecipitationIn,Events,Conditions,WindDirDegrees,DateUTC
12:14 AM,64.4,62.6,94,29.90,2.5,Calm,Calm,-,0.02,Rain,Rain,0,2012-10-03 04:14:00
12:19 AM,64.4,62.6,94,29.90,1.5,Calm,Calm,-,0.05,Rain,Heavy Rain,0,2012-10-03 04:19:00
12:26 AM,64.4,62.6,94,29.90,0.8,West,3.5,-,0.16,Rain,Heavy Rain,260,2012-10-03 04:26:00
12:30 AM,64.4,62.6,94,29.91,0.8,WSW,8.1,-,0.28,Rain,Heavy Rain,250,2012-10-03 04:30:00
12:37 AM,64.4,62.6,94,29.90,1.5,NNE,4.6,-,0.31,Rain,Heavy Rain,30,2012-10-03 04:37:00
12:45 AM,64.4,64.4,100,29.90,1.8,Calm,Calm,-,0.37,Rain,Heavy Rain,0,2012-10-03 04:45:00
12:51 AM,64.9,64.0,97,29.89,3.0,NNW,3.5,-,0.40,Rain,Light Rain,340,2012-10-03 04:51:00
12:57 AM,64.4,64.4,100,29.90,4.0,North,3.5,-,0.00,Rain,Light Rain,10,2012-10-03 04:57:00
1:00 AM,64.4,64.4,100,29.90,5.0,North,3.5,-,0.00,Rain,Light Rain,360,2012-10-03 05:00:00
1:51 AM,64.9,64.0,97,29.89,4.0,SE,4.6,-,0.00,,Overcast,140,2012-10-03 05:51:00
2:01 AM,64.4,64.4,100,29.91,3.0,SSE,4.6,-,N/A,,Mostly Cloudy,160,2012-10-03 06:01:00
2:44 AM,64.4,62.6,94,29.90,2.5,East,4.6,-,N/A,,Scattered Clouds,90,2012-10-03 06:44:00
2:51 AM,63.0,62.1,97,29.90,2.5,Calm,Calm,-,N/A,,Scattered Clouds,0,2012-10-03 06:51:00
2:58 AM,62.6,62.6,100,29.91,2.0,ESE,3.5,-,N/A,,Scattered Clouds,120,2012-10-03 06:58:00
3:02 AM,62.6,62.6,100,29.91,1.8,ESE,3.5,-,N/A,,Scattered Clouds,120,2012-10-03 07:02:00
3:12 AM,62.6,62.6,100,29.91,0.8,Calm,Calm,-,N/A,,Mostly Cloudy,0,2012-10-03 07:12:00
3:23 AM,62.6,60.8,94,29.91,0.2,Calm,Calm,-,N/A,Fog,Fog,0,2012-10-03 07:23:00
3:51 AM,62.1,61.0,96,29.92,0.5,SW,5.8,-,N/A,Fog,Fog,220,2012-10-03 07:51:00
4:00 AM,62.6,60.8,94,29.93,2.0,SW,3.5,-,N/A,,Overcast,230,2012-10-03 08:00:00
4:04 AM,62.6,62.6,100,29.93,2.5,SW,3.5,-,N/A,,Overcast,220,2012-10-03 08:04:00
4:09 AM,62.6,62.6,100,29.93,4.0,SSW,4.6,-,N/A,,Overcast,210,2012-10-03 08:09:00
4:51 AM,63.0,63.0,100,29.95,6.0,SW,6.9,-,N/A,,Overcast,220,2012-10-03 08:51:00
5:51 AM,63.0,62.1,97,29.97,5.0,SW,8.1,-,N/A,,Overcast,230,2012-10-03 09:51:00
6:09 AM,62.6,60.8,94,29.99,9.0,SW,11.5,-,N/A,,Overcast,230,2012-10-03 10:09:00
6:51 AM,62.1,61.0,96,30.00,8.0,SW,11.5,19.6,N/A,,Overcast,220,2012-10-03 10:51:00
7:30 AM,62.6,60.8,94,30.02,7.0,SSW,8.1,-,N/A,,Mostly Cloudy,210,2012-10-03 11:30:00
7:51 AM,62.1,61.0,96,30.02,6.0,SSW,6.9,-,N/A,,Overcast,210,2012-10-03 11:51:00
8:51 AM,63.0,60.1,90,30.03,9.0,South,5.8,-,N/A,,Overcast,180,2012-10-03 12:51:00
9:51 AM,64.9,61.0,87,30.05,10.0,SSW,8.1,-,N/A,,Overcast,210,2012-10-03 13:51:00
10:51 AM,69.1,60.1,73,30.06,10.0,SSW,10.4,-,N/A,,Overcast,210,2012-10-03 14:51:00
11:51 AM,66.9,57.9,73,30.06,10.0,SW,11.5,19.6,N/A,,Overcast,230,2012-10-03 15:51:00
12:51 PM,71.1,57.9,63,30.05,10.0,SSW,13.8,20.7,N/A,,Overcast,200,2012-10-03 16:51:00
1:51 PM,70.0,57.0,63,30.04,10.0,SW,12.7,-,N/A,,Overcast,230,2012-10-03 17:51:00
2:51 PM,69.1,55.9,63,30.05,10.0,SW,13.8,-,N/A,,Overcast,230,2012-10-03 18:51:00
3:51 PM,66.0,53.1,63,30.08,10.0,SSW,12.7,23.0,N/A,,Overcast,200,2012-10-03 19:51:00
4:51 PM,64.9,53.1,65,30.09,10.0,SSW,13.8,-,N/A,,Overcast,200,2012-10-03 20:51:00
5:51 PM,64.0,52.0,65,30.10,10.0,SW,9.2,-,N/A,,Mostly Cloudy,220,2012-10-03 21:51:00
6:51 PM,62.1,53.1,72,30.11,10.0,SSW,5.8,-,N/A,,Mostly Cloudy,200,2012-10-03 22:51:00
7:51 PM,61.0,53.1,75,30.12,10.0,South,3.5,-,N/A,,Mostly Cloudy,170,2012-10-03 23:51:00
8:51 PM,60.1,53.1,78,30.13,10.0,SSE,8.1,-,N/A,,Mostly Cloudy,160,2012-10-04 00:51:00
9:51 PM,59.0,54.0,83,30.14,10.0,South,6.9,-,N/A,,Mostly Cloudy,170,2012-10-04 01:51:00
10:51 PM,59.0,54.0,83,30.14,10.0,South,5.8,-,N/A,,Overcast,170,2012-10-04 02:51:00
11:51 PM,57.2,53.6,88,30.16,10.0,SSE,5.8,-,N/A,,Overcast,160,2012-10-04 03:51:00